MST,Max TemperatureF,Mean TemperatureF,Min TemperatureF,Max Dew PointF,MeanDew PointF,Min DewpointF,Max Humidity, Mean Humidity, Min Humidity, Max Sea Level PressureIn, Mean Sea Level PressureIn, Min Sea Level PressureIn, Max VisibilityMiles, Mean VisibilityMiles, Min VisibilityMiles, Max Wind SpeedMPH, Mean Wind SpeedMPH, Max Gust SpeedMPH,PrecipitationIn, CloudCover, Events, WindDirDegrees
2013-2-1,36,30,24,25,22,18,92,74,56,30.13,30.01,29.90,10,8,2,25,11,36,0.01,6,Snow,274
2013-2-2,35,30,24,25,18,15,75,61,47,30.28,30.19,30.06,10,9,2,28,13,46,T,1,Snow,288
2013-2-3,45,33,20,18,15,8,81,52,22,30.20,29.98,29.84,10,10,10,22,8,32,0.00,0,,271
2013-2-4,40,32,23,20,17,14,68,53,37,29.91,29.85,29.80,10,10,10,25,8,39,0.00,3,,268
2013-2-5,39,32,24,22,20,18,81,65,48,29.99,29.91,29.83,10,10,10,16,6,25,0.00,4,,277
2013-2-6,45,33,21,26,21,16,84,62,39,30.08,29.90,29.78,10,9,1,12,4,21,T,4,Snow,289
2013-2-7,38,30,21,15,14,12,77,56,35,30.18,30.10,29.99,10,10,10,20,6,28,0.00,0,,260
2013-2-8,42,31,20,19,13,6,77,50,22,29.97,29.86,29.80,10,10,10,22,6,29,0.00,0,,255
2013-2-9,37,29,20,15,12,9,77,58,38,29.81,29.72,29.62,10,10,10,22,11,33,T,5,,24
2013-2-10,24,17,9,16,10,1,84,67,50,30.06,29.72,29.52,10,8,2,23,11,39,0.01,6,Snow,338
2013-2-11,24,15,6,9,3,0,76,61,45,30.12,30.08,30.03,10,10,10,20,8,30,0.00,0,,271
2013-2-12,37,24,10,16,10,1,68,52,35,30.07,30.01,29.92,10,10,10,21,10,30,0.00,3,,278
2013-2-13,38,29,20,27,20,9,78,61,44,29.99,29.85,29.74,10,7,0,29,12,44,0.03,5,Fog-Snow,289
2013-2-14,24,13,2,12,6,-2,87,66,44,30.39,30.17,29.98,10,10,3,23,9,43,T,4,Snow,305
2013-2-15,26,16,5,13,6,0,80,58,35,30.43,30.34,30.14,10,10,10,18,8,29,0.00,4,,297
2013-2-16,44,33,22,21,20,15,69,54,39,30.12,30.00,29.81,10,10,10,25,12,37,0.00,1,,280
2013-2-17,45,35,24,21,17,14,69,50,31,29.78,29.65,29.52,10,10,10,25,10,37,0.00,1,,279
2013-2-18,27,15,3,13,8,0,80,62,44,30.18,29.92,29.69,10,10,8,23,8,40,T,4,Snow,313
2013-2-19,24,11,-3,14,5,-8,91,76,60,30.24,30.07,29.87,10,8,1,16,6,22,0.00,3,,171
2013-2-20,26,17,8,14,11,5,92,74,55,30.00,29.85,29.69,10,7,0,12,6,23,0.00,5,Fog,180
2013-2-21,23,19,14,18,14,10,92,85,77,29.99,29.83,29.73,10,3,0,12,4,14,0.06,8,Fog-Snow,88
2013-2-22,32,23,14,16,11,8,88,65,42,29.98,29.88,29.74,10,10,7,21,6,36,T,4,,282
2013-2-23,39,23,7,21,10,3,76,53,29,29.78,29.73,29.66,10,10,8,16,6,25,T,4,Snow,297
2013-2-24,30,21,11,22,17,7,88,76,63,30.17,29.94,29.74,10,8,2,13,5,24,0.02,6,Snow,339
2013-2-25,37,21,5,11,7,1,88,57,26,30.17,30.01,29.82,10,10,10,18,5,30,0.00,0,,254
2013-2-26,35,25,14,21,15,8,73,62,51,30.09,29.93,29.80,10,10,6,17,7,28,T,5,Snow,348
2013-2-27,34,25,16,11,9,6,74,55,36,30.27,30.19,30.11,10,10,10,16,6,28,0.00,2,,324
2013-2-28,34,25,15,21,14,9,80,58,35,30.25,30.19,30.08,10,8,1,21,7,29,T,4,Snow,302